[[{"header":{"parameterUnit":"m.s-1","parameterCategory":2,"la1":30.2991,"la2":30.254,"lo1":-89.0895,"lo2":-89.0444,"dy":0.0017,"dx":0.0017,"nx":28,"ny":28,"refTime":"2025-09-12T03:00:00:Z","depth":"0","parameterNumber":2,"parameterNumberName":"U-component_of_CURRENTS"},"data":[0,0,0,0,0,0,0,0,0,0,0,0,0,0,0,0,0,0,0,0,0,0,0,0,0,0,0,0,0,0,0,0,0,0,0,0,0,0,0,0,0,0,0,0,0,0,0,0,0,0,0,0,0,0,0,0,0,0,0.2796,0.2797,0,0.2865,0.2865,0.2866,0.2887,0.2887,0.2887,0.2887,0.2904,0.2904,0.2905,0,0,0,0,0,0,0,0,0,0,0,0,0,0.2741,0.2742,0.2796,0.2797,0.2798,0.2865,0.2865,0.2866,0.2887,0.2887,0.2887,0.2887,0.2903,0.2904,0.2905,0,0,0,0,0,0,0,0,0,0,0,0,0,0.278,0.2742,0.2796,0.2819,0.2822,0.2865,0.2865,0.2866,0.2887,0.2887,0.2887,0.2887,0.2903,0.2904,0.2905,0.2911,0,0,0.2907,0.2907,0,0,0,0,0,0,0,0,0.2778,0.2782,0.2815,0.2818,0.2821,0.287,0.2853,0.288,0.2888,0.286,0.2887,0.2887,0.2889,0.2891,0.2901,0.2912,0.2913,0.2907,0.2908,0.2908,0.2908,0,0,0,0,0,0,0,0.2775,0.2779,0.282,0.2816,0.282,0.2846,0.2851,0.2858,0.2871,0.2862,0.2864,0.2877,0.289,0.29,0.2902,0.2913,0.2907,0.2908,0.2908,0.2908,0.2977,0.2979,0,0,0,0,0,0,0.2769,0.2777,0.2818,0.2823,0.2802,0.2847,0.2852,0.2852,0.2872,0.2877,0.2877,0.2878,0.2899,0.2901,0.2902,0.2951,0.2908,0.2909,0.2909,0.2976,0.2978,0.2979,0,0,0,0,0,0,0.2768,0.2772,0.2816,0.2804,0.2812,0.2848,0.2848,0.2854,0.2865,0.2885,0.2887,0.2883,0.2899,0.2901,0.2925,0.295,0.2909,0.291,0.2974,0.2977,0.2979,0.3022,0,0,0,0,0,0,0.2766,0.2771,0.277,0.2803,0.2813,0.2843,0.2849,0.2855,0.2874,0.2875,0.289,0.2892,0.2899,0.2925,0.2926,0.295,0.291,0.2973,0.2975,0.2978,0.3018,0.3025,0.303,0,0,0,0,0,0.2763,0.2765,0.2769,0.2775,0.281,0.2843,0.285,0.2874,0.2874,0.2882,0.2902,0.2892,0.2942,0.2926,0.2928,0.2952,0.2971,0.2975,0.2978,0.3016,0.3024,0.303,0,0,0,0,0,0,0.2741,0.2768,0.2774,0.2783,0.2812,0.2848,0.2861,0.2873,0.2895,0.2895,0.2906,0.291,0.2943,0.2941,0.2923,0.2981,0.2956,0.296,0.2984,0.2992,0.2998,0.3013,0.2911,0,0,0,0,0,0.2736,0.2741,0.2775,0.2781,0.2795,0.2826,0.2842,0.2859,0.2884,0.2893,0.2908,0.2927,0.2958,0.2968,0.2987,0.3012,0.3055,0.3031,0.3037,0.3042,0.3057,0.3142,0.3157,0.299,0.2989,0.2989,0,0,0.2729,0.2745,0.2748,0.2777,0.2799,0.2832,0.2835,0.286,0.2893,0.289,0.2931,0.2946,0.297,0.301,0.3023,0.3009,0.3117,0.3046,0.305,0.3063,0.3147,0.3163,0.3178,0.2992,0.2991,0.2991,0,0,0.2729,0.2732,0.2743,0.2769,0.2806,0.2831,0.2838,0.2875,0.2897,0.2935,0.2953,0.2986,0.3014,0.3051,0.307,0.3119,0.3147,0.3118,0.3159,0.3241,0.3256,0.3269,0.3367,0.3389,0.3119,0.3119,0.3119,0,0.2725,0.2743,0.2753,0.278,0.2812,0.2831,0.2867,0.2894,0.2936,0.2971,0.2951,0.3039,0.3042,0.3123,0.3139,0.3134,0.3191,0.3128,0.3251,0.3264,0.3278,0.3374,0.3397,0.3122,0.3121,0.3121,0.3121,0,0.2741,0.2762,0.2773,0.2815,0.2845,0.2876,0.2921,0.2952,0.2974,0.3014,0.3086,0.3104,0.3165,0.3165,0.3164,0.3261,0.3278,0.325,0.3233,0.3297,0.3395,0.3418,0.3125,0.3124,0.3124,0.3123,0,0,0.2734,0.2777,0.2784,0.282,0.287,0.2904,0.2957,0.3031,0.3085,0.3118,0.3201,0.3242,0.326,0.3284,0.3291,0.3344,0.3477,0.3335,0.3338,0.3434,0.3687,0.3711,0.374,0.3475,0.3478,0.3481,0.3726,0,0.2757,0.2812,0.2826,0.2894,0.294,0.2975,0.3029,0.3094,0.3143,0.3223,0.3267,0.3337,0.3305,0.3336,0.3393,0.3455,0.3539,0.3415,0.3608,0.3615,0.363,0.3767,0.3577,0.378,0.3749,0.3753,0.3756,0,0.2792,0.2826,0.2888,0.2964,0.2985,0.3022,0.3127,0.3174,0.3279,0.3319,0.3398,0.3437,0.354,0.3483,0.366,0.3587,0.3652,0.369,0.37,0.3724,0.3683,0.3707,0.3825,0.3685,0.3793,0.379,0.3787,0,0.2827,0.2884,0.2938,0.2963,0.3038,0.3075,0.3117,0.3211,0.3291,0.3387,0.3477,0.3567,0.3663,0.3734,0.3835,0.3757,0.4037,0.3937,0.4034,0.4037,0.3915,0.3901,0.3919,0.4084,0.4084,0.4083,0.4082,0,0.288,0.2936,0.2954,0.2991,0.3073,0.3102,0.3203,0.3254,0.3364,0.3484,0.3536,0.3671,0.3733,0.3896,0.3922,0.4097,0.413,0.4094,0.4118,0.3927,0.3912,0.3813,0.3745,0.4092,0.409,0.4089,0.4087,0,0.2966,0.2962,0.3035,0.3079,0.3099,0.3162,0.3268,0.3346,0.3436,0.3599,0.3647,0.3819,0.4013,0.4114,0.4266,0.4257,0.4251,0.4421,0.4209,0.4203,0.4085,0.4027,0.4002,0.3882,0.4536,0.4538,0.454,0,0.3044,0.3072,0.3104,0.3134,0.3161,0.3242,0.3304,0.338,0.3466,0.3699,0.3792,0.4036,0.4187,0.4458,0.4482,0.4591,0.4405,0.4469,0.4264,0.411,0.4063,0.3878,0.3762,0.4129,0.4127,0.4126,0.4125,0,0.3174,0.3151,0.3178,0.3223,0.3269,0.3342,0.3422,0.3499,0.3603,0.3747,0.3935,0.4068,0.4351,0.4378,0.4551,0.4562,0.4215,0.4447,0.4326,0.3806,0.3567,0.3451,0.3954,0.4113,0.4114,0.4115,0.4116,0.4116,0.3244,0.3269,0.3241,0.3288,0.3342,0.3379,0.3394,0.3495,0.3601,0.3736,0.394,0.4068,0.4192,0.4394,0.4411,0.4265,0.4226,0.4054,0.4024,0.3874,0.3659,0.4173,0.4327,0.4329,0.4331,0.4333,0.4334,0,0.3263,0.3255,0.3311,0.3297,0.3326,0.3356,0.3419,0.3391,0.3444,0.3652,0.3782,0.3882,0.3942,0.4007,0.3964,0.3815,0.3599,0.3689,0.3326,0.3252,0.3747,0.3626,0.3586,0.3586,0.3586,0.3586,0.3587,0.3587,0.3247,0.3238,0.3236,0.3227,0.3244,0.3186,0.3175,0.3167,0.3245,0.3305,0.336,0.3476,0.3615,0.367,0.3514,0.3423,0.3113,0.3007,0.3012,0.3292,0.3318,0.3344,0.3211,0.3086,0.3085,0.2318,0.2312,0.2308]},{"header":{"parameterUnit":"m.s-1","parameterCategory":2,"la1":30.2991,"la2":30.254,"lo1":-89.0895,"lo2":-89.0444,"dy":0.0017,"dx":0.0017,"nx":28,"ny":28,"refTime":"2025-09-12T03:00:00:Z","depth":"0","parameterNumber":3,"parameterNumberName":"V-component_of_CURRENTS"},"data":[0,0,0,0,0,0,0,0,0,0,0,0,0,0,0,0,0,0,0,0,0,0,0,0,0,0,0,0,0,0,0,0,0,0,0,0,0,0,0,0,0,0,0,0,0,0,0,0,0,0,0,0,0,0,0,0,0,0,-0.0227,-0.0227,0,-0.0293,-0.0294,-0.0295,-0.0355,-0.0356,-0.0356,-0.0357,-0.0452,-0.0454,-0.0456,0,0,0,0,0,0,0,0,0,0,0,0,0,-0.0215,-0.0214,-0.0227,-0.0228,-0.0228,-0.0293,-0.0294,-0.0295,-0.0355,-0.0356,-0.0356,-0.0357,-0.0451,-0.0453,-0.0456,0,0,0,0,0,0,0,0,0,0,0,0,0,-0.0245,-0.0214,-0.0227,-0.0265,-0.0269,-0.0292,-0.0294,-0.0295,-0.0355,-0.0356,-0.0357,-0.0357,-0.045,-0.0453,-0.0456,-0.0457,0,0,-0.0465,-0.0466,0,0,0,0,0,0,0,0,-0.0244,-0.0246,-0.0259,-0.0262,-0.0267,-0.0315,-0.0324,-0.035,-0.0355,-0.0324,-0.0357,-0.0358,-0.0407,-0.0414,-0.0426,-0.0461,-0.0465,-0.0465,-0.0467,-0.0469,-0.0469,0,0,0,0,0,0,0,-0.0241,-0.0244,-0.0255,-0.0259,-0.0264,-0.03,-0.0305,-0.033,-0.0361,-0.0327,-0.0331,-0.0335,-0.041,-0.0423,-0.0429,-0.0467,-0.0465,-0.0468,-0.047,-0.0471,-0.0524,-0.0523,0,0,0,0,0,0,-0.0226,-0.0241,-0.0252,-0.0256,-0.0255,-0.0299,-0.0304,-0.03,-0.0361,-0.037,-0.0334,-0.0338,-0.0417,-0.0425,-0.0432,-0.0446,-0.0468,-0.0471,-0.0473,-0.0524,-0.0523,-0.0523,0,0,0,0,0,0,-0.0225,-0.0225,-0.025,-0.025,-0.0255,-0.0297,-0.0292,-0.0301,-0.0313,-0.0366,-0.0377,-0.0337,-0.0418,-0.0428,-0.0453,-0.0449,-0.0473,-0.0475,-0.0524,-0.0524,-0.0523,-0.0466,0,0,0,0,0,0,-0.0224,-0.0225,-0.0219,-0.0248,-0.0255,-0.0253,-0.0292,-0.0301,-0.0314,-0.0319,-0.0372,-0.0382,-0.042,-0.0448,-0.0455,-0.0454,-0.0478,-0.0525,-0.0524,-0.0523,-0.0469,-0.0464,-0.046,0,0,0,0,0,-0.0223,-0.0203,-0.0218,-0.022,-0.0244,-0.0252,-0.0259,-0.0294,-0.0313,-0.031,-0.035,-0.038,-0.0449,-0.045,-0.0459,-0.0458,-0.0525,-0.0524,-0.0523,-0.0471,-0.0465,-0.046,0,0,0,0,0,0,-0.0194,-0.0209,-0.0225,-0.0211,-0.0228,-0.0262,-0.0261,-0.0285,-0.0314,-0.032,-0.0374,-0.0386,-0.0408,-0.0436,-0.0435,-0.0471,-0.0492,-0.0493,-0.0449,-0.0444,-0.044,-0.042,-0.048,0,0,0,0,0,-0.0184,-0.0174,-0.0197,-0.0186,-0.019,-0.0224,-0.0233,-0.0254,-0.0283,-0.0297,-0.0334,-0.0375,-0.0411,-0.0429,-0.0461,-0.0475,-0.0484,-0.0481,-0.0477,-0.0473,-0.0463,-0.0486,-0.0482,-0.052,-0.052,-0.052,0,0,-0.0171,-0.0177,-0.0173,-0.018,-0.0196,-0.0193,-0.0232,-0.0234,-0.024,-0.0301,-0.0317,-0.0358,-0.041,-0.0433,-0.0445,-0.0456,-0.0459,-0.0472,-0.0468,-0.046,-0.0484,-0.0481,-0.0477,-0.052,-0.052,-0.052,0,0,-0.0136,-0.0142,-0.0124,-0.0131,-0.0145,-0.0164,-0.016,-0.0188,-0.0207,-0.0225,-0.0275,-0.031,-0.0357,-0.0398,-0.0425,-0.0411,-0.0435,-0.0423,-0.0387,-0.0409,-0.0406,-0.0404,-0.0376,-0.0372,-0.0422,-0.0422,-0.0422,0,-0.0124,-0.0101,-0.012,-0.0106,-0.0105,-0.0145,-0.0126,-0.0151,-0.0186,-0.0195,-0.022,-0.0296,-0.0342,-0.0377,-0.038,-0.0402,-0.0401,-0.0404,-0.0402,-0.04,-0.0399,-0.0372,-0.0368,-0.0419,-0.0419,-0.042,-0.042,0,-0.0076,-0.0063,-0.0048,-0.0045,-0.0046,-0.0034,-0.0064,-0.0071,-0.0099,-0.013,-0.0164,-0.0232,-0.0273,-0.0301,-0.034,-0.0355,-0.0351,-0.0393,-0.0413,-0.0391,-0.0364,-0.0361,-0.0415,-0.0416,-0.0417,-0.0417,0,0,-0.0036,-0.0018,-0.0015,0.0004,-0.001,0.0001,-0.0004,-0.0014,-0.0004,-0.0065,-0.0058,-0.015,-0.0186,-0.0218,-0.0275,-0.0307,-0.0294,-0.034,-0.0342,-0.0306,-0.0301,-0.0263,-0.0256,-0.0338,-0.0338,-0.0338,-0.0275,0,0.0006,0.0054,0.0047,0.0089,0.0113,0.0085,0.0089,0.0071,0.0046,0.0043,-0.0042,-0.0066,-0.0155,-0.0169,-0.0216,-0.0268,-0.0288,-0.0304,-0.0334,-0.0333,-0.0298,-0.0252,-0.0252,-0.0193,-0.0272,-0.0271,-0.0271,0,0.0054,0.0084,0.0134,0.017,0.018,0.0192,0.0212,0.0211,0.0181,0.0161,0.0111,0.0055,0.0001,-0.0078,-0.016,-0.0164,-0.0223,-0.0274,-0.0274,-0.0257,-0.029,-0.0236,-0.0184,-0.0377,-0.0266,-0.0266,-0.0267,0,0.0103,0.0148,0.0195,0.0204,0.023,0.0249,0.0259,0.0245,0.0269,0.0237,0.0268,0.0168,0.0159,0.0046,-0.0051,-0.0105,-0.0114,-0.0204,-0.0224,-0.022,-0.0234,-0.0231,-0.0369,-0.0262,-0.0262,-0.0262,-0.0262,0,0.0148,0.0185,0.0224,0.025,0.0317,0.0309,0.0369,0.0361,0.0378,0.0441,0.0335,0.0386,0.0187,0.0158,0.0024,-0.0049,-0.0052,-0.0191,-0.0203,-0.0209,-0.0206,-0.0387,-0.05,-0.0259,-0.026,-0.026,-0.0261,0,0.0167,0.0196,0.0261,0.0314,0.0339,0.0382,0.0451,0.0496,0.0504,0.0594,0.0597,0.0566,0.054,0.0378,0.024,0.0086,-0.0111,-0.0049,-0.0011,-0.0021,-0.026,-0.0369,-0.0476,-0.0558,-0.0078,-0.0077,-0.0076,0,0.0169,0.0204,0.0308,0.0362,0.0384,0.0453,0.0508,0.0542,0.0611,0.073,0.0797,0.0805,0.0856,0.0693,0.0423,0.0227,0.0001,0.0056,-0.008,-0.0247,-0.0378,-0.0464,-0.0533,-0.0061,-0.006,-0.0059,-0.0058,0,0.017,0.0215,0.0277,0.0398,0.0478,0.0575,0.0668,0.0751,0.0831,0.0948,0.112,0.1185,0.1059,0.0887,0.0598,0.0406,-0.0086,0.0068,-0.0138,-0.0391,-0.046,-0.0552,-0.0099,-0.005,-0.0051,-0.0051,-0.0052,-0.0052,0.0174,0.0223,0.0327,0.0438,0.0544,0.0687,0.0787,0.0925,0.1094,0.1318,0.1372,0.155,0.1253,0.0879,0.0592,0.0028,0.0008,-0.0187,-0.03,-0.0367,-0.0474,0.0035,0.0081,0.0081,0.0081,0.0081,0.0081,0,0.0192,0.0259,0.0359,0.0521,0.0645,0.0699,0.0892,0.1025,0.1262,0.1521,0.171,0.1714,0.1314,0.0847,0.0119,-0.0281,-0.048,-0.0519,-0.0691,-0.0745,-0.032,-0.0351,-0.0354,-0.0354,-0.0354,-0.0354,-0.0354,-0.0353,0.021,0.0311,0.037,0.0575,0.0688,0.0882,0.1001,0.1226,0.1449,0.1781,0.1961,0.2073,0.1706,0.0412,-0.049,-0.0705,-0.1028,-0.1054,-0.1201,-0.098,-0.096,-0.0941,-0.0999,-0.1139,-0.114,-0.1597,-0.1602,-0.1605]}],[{"header":{"parameterUnit":"m.s-1","parameterCategory":2,"la1":30.2991,"la2":30.254,"lo1":-89.0895,"lo2":-89.0444,"dy":0.0017,"dx":0.0017,"nx":28,"ny":28,"refTime":"2025-09-12T03:00:00:Z","depth":"2","parameterNumber":2,"parameterNumberName":"U-component_of_CURRENTS"},"data":[0,0,0,0,0,0,0,0,0,0,0,0,0,0,0,0,0,0,0,0,0,0,0,0,0,0,0,0,0,0,0,0,0,0,0,0,0,0,0,0,0,0,0,0,0,0,0,0,0,0,0,0,0,0,0,0,0,0,0.2321,0.2322,0,0.2376,0.2376,0.2376,0.2392,0.2392,0.2392,0.2393,0.2436,0.2437,0.2438,0,0,0,0,0,0,0,0,0,0,0,0,0,0.2266,0.2266,0.2321,0.2322,0.2323,0.2376,0.2376,0.2376,0.2392,0.2392,0.2393,0.2393,0.2436,0.2437,0.2438,0,0,0,0,0,0,0,0,0,0,0,0,0,0.2297,0.2266,0.2321,0.2341,0.2344,0.2375,0.2376,0.2376,0.2392,0.2392,0.2393,0.2393,0.2435,0.2437,0.2438,0.2442,0,0,0.2443,0.2443,0,0,0,0,0,0,0,0,0.2295,0.2298,0.2337,0.234,0.2343,0.2382,0.2373,0.2399,0.2392,0.2369,0.2393,0.2393,0.242,0.2423,0.2425,0.2444,0.2446,0.2443,0.2444,0.2444,0.2445,0,0,0,0,0,0,0,0.2293,0.2296,0.2338,0.2338,0.2342,0.236,0.2364,0.2378,0.2388,0.2371,0.2373,0.2387,0.2421,0.2424,0.2427,0.2447,0.2443,0.2444,0.2445,0.2446,0.2535,0.2536,0,0,0,0,0,0,0.2294,0.2294,0.2336,0.234,0.2325,0.2361,0.2365,0.2365,0.2388,0.2394,0.2387,0.2388,0.2421,0.2425,0.2428,0.2492,0.2444,0.2446,0.2447,0.2534,0.2535,0.2537,0,0,0,0,0,0,0.2293,0.2297,0.2334,0.2323,0.233,0.2362,0.2362,0.2366,0.2385,0.2402,0.2406,0.2404,0.2422,0.2426,0.2458,0.2491,0.2446,0.2448,0.2532,0.2534,0.2536,0.2582,0,0,0,0,0,0,0.229,0.2295,0.23,0.2323,0.2331,0.2362,0.2362,0.2367,0.2395,0.2397,0.2417,0.2421,0.2422,0.2456,0.2459,0.2493,0.2449,0.253,0.2533,0.2535,0.2579,0.2585,0.2591,0,0,0,0,0,0.2288,0.2295,0.2299,0.2306,0.2334,0.2363,0.2369,0.2389,0.2396,0.2406,0.2425,0.2421,0.2476,0.2458,0.2462,0.2496,0.2529,0.2532,0.2535,0.2576,0.2584,0.2591,0,0,0,0,0,0,0.2269,0.2299,0.2304,0.2318,0.2343,0.2368,0.2386,0.2399,0.242,0.2425,0.2435,0.244,0.2479,0.2482,0.2462,0.2531,0.2504,0.2508,0.2534,0.2541,0.2548,0.2566,0.245,0,0,0,0,0,0.2268,0.2284,0.2311,0.2324,0.2338,0.2363,0.238,0.2394,0.2417,0.2427,0.2445,0.2467,0.2493,0.2513,0.2527,0.2565,0.2589,0.2592,0.2598,0.2604,0.2622,0.2687,0.2702,0.2548,0.2548,0.2548,0,0,0.2265,0.2285,0.2293,0.2322,0.2342,0.2368,0.2373,0.2403,0.2428,0.2429,0.2468,0.2485,0.2506,0.2547,0.2566,0.2558,0.266,0.2608,0.2612,0.2628,0.2693,0.2708,0.2721,0.255,0.255,0.2549,0,0,0.227,0.2283,0.2299,0.2324,0.2362,0.238,0.2393,0.2426,0.2444,0.2479,0.2493,0.2537,0.2564,0.26,0.2618,0.2671,0.2685,0.2675,0.2732,0.2795,0.2808,0.282,0.2867,0.2883,0.2686,0.2687,0.2687,0,0.2267,0.2288,0.2309,0.2334,0.2362,0.2389,0.2416,0.2438,0.2478,0.2517,0.2496,0.2582,0.2592,0.2673,0.2692,0.2687,0.272,0.2698,0.2804,0.2816,0.2828,0.2873,0.289,0.2689,0.2689,0.2689,0.2688,0,0.2284,0.2307,0.2322,0.2362,0.239,0.242,0.2457,0.2497,0.2521,0.2556,0.2631,0.2646,0.2711,0.2717,0.272,0.2819,0.2815,0.2797,0.2784,0.2846,0.2889,0.2906,0.2693,0.2692,0.2691,0.2691,0,0,0.227,0.2323,0.233,0.2363,0.241,0.2443,0.2493,0.2565,0.263,0.2657,0.2738,0.2782,0.2813,0.2836,0.2851,0.2903,0.3004,0.2893,0.2895,0.2939,0.3145,0.3083,0.3096,0.3009,0.3012,0.3015,0.3141,0,0.2282,0.2329,0.2353,0.2415,0.2449,0.2499,0.2554,0.2624,0.2676,0.276,0.2804,0.2876,0.2851,0.2894,0.2944,0.2997,0.3052,0.2971,0.3079,0.3082,0.302,0.3114,0.2862,0.2948,0.3157,0.316,0.3162,0,0.2301,0.2331,0.2384,0.2469,0.2491,0.2537,0.2655,0.2706,0.2825,0.2873,0.2955,0.2983,0.3085,0.3031,0.3163,0.3117,0.3144,0.3163,0.3168,0.311,0.3053,0.2921,0.2971,0.319,0.3188,0.3186,0.3184,0,0.2304,0.2366,0.2414,0.2439,0.2528,0.2584,0.2643,0.2757,0.282,0.2959,0.3029,0.3126,0.3202,0.3245,0.3293,0.3244,0.342,0.3353,0.3319,0.3314,0.312,0.3093,0.3442,0.3442,0.3442,0.3441,0.3441,0,0.2324,0.2361,0.2428,0.246,0.2544,0.2606,0.2712,0.2798,0.2912,0.3014,0.3095,0.319,0.3264,0.3357,0.3357,0.3414,0.3482,0.3359,0.3357,0.3127,0.31,0.3319,0.3303,0.3446,0.3445,0.3444,0.3443,0,0.2323,0.236,0.2428,0.2521,0.2551,0.2622,0.2732,0.2812,0.2937,0.3068,0.3118,0.3284,0.3423,0.3474,0.3576,0.3517,0.3553,0.3549,0.3271,0.3233,0.3379,0.3364,0.3513,0.3512,0.3512,0.3511,0.3511,0,0.2304,0.2352,0.2459,0.251,0.2555,0.2647,0.2711,0.2819,0.2886,0.312,0.3177,0.3372,0.3453,0.3588,0.3563,0.3566,0.3611,0.3318,0.3165,0.3411,0.3394,0.338,0.3366,0.2925,0.292,0.2915,0.2912,0,0.229,0.2356,0.2415,0.2516,0.2591,0.2667,0.2755,0.2787,0.2933,0.3021,0.317,0.3253,0.3425,0.3332,0.3376,0.3331,0.3287,0.323,0.3599,0.2942,0.2866,0.2846,0.285,0.2874,0.2878,0.2881,0.2883,0.2884,0.2292,0.2329,0.2429,0.2515,0.2601,0.2671,0.2669,0.2739,0.2791,0.2855,0.3024,0.3043,0.3116,0.3036,0.297,0.2933,0.313,0.2957,0.2966,0.2981,0.2887,0.2813,0.2793,0.2796,0.2799,0.2802,0.2804,0,0.228,0.2338,0.2418,0.2498,0.2534,0.2624,0.2677,0.2607,0.2578,0.267,0.2701,0.2514,0.2488,0.2577,0.2459,0.2452,0.2384,0.2354,0.2239,0.2282,0.2318,0.2184,0.1908,0.1905,0.1901,0.1899,0,0,0.2296,0.2332,0.2352,0.2381,0.2447,0.2413,0.2413,0.2342,0.2329,0.2217,0.2184,0.234,0.248,0.2139,0.2123,0.1996,0.2106,0.1919,0.2649,0.2557,0.2588,0.2695,0.2542,0,0,0,0,0]},{"header":{"parameterUnit":"m.s-1","parameterCategory":2,"la1":30.2991,"la2":30.254,"lo1":-89.0895,"lo2":-89.0444,"dy":0.0017,"dx":0.0017,"nx":28,"ny":28,"refTime":"2025-09-12T03:00:00:Z","depth":"2","parameterNumber":3,"parameterNumberName":"V-component_of_CURRENTS"},"data":[0,0,0,0,0,0,0,0,0,0,0,0,0,0,0,0,0,0,0,0,0,0,0,0,0,0,0,0,0,0,0,0,0,0,0,0,0,0,0,0,0,0,0,0,0,0,0,0,0,0,0,0,0,0,0,0,0,0,0.0101,0.0101,0,0.0046,0.0045,0.0044,0.0001,0.0001,0.0001,0.0,-0.008,-0.0081,-0.0083,0,0,0,0,0,0,0,0,0,0,0,0,0,0.0125,0.0125,0.0101,0.01,0.01,0.0046,0.0045,0.0044,0.0002,0.0001,0.0001,0.0,-0.0079,-0.0081,-0.0083,0,0,0,0,0,0,0,0,0,0,0,0,0,0.0096,0.0125,0.0101,0.0072,0.0069,0.0046,0.0045,0.0044,0.0002,0.0001,0.0001,0.0,-0.0078,-0.0081,-0.0084,-0.0089,0,0,-0.0092,-0.0093,0,0,0,0,0,0,0,0,0.0098,0.0095,0.0077,0.0074,0.0071,0.003,0.0024,-0.0002,0.0002,0.0027,0.0,-0.0,-0.0044,-0.005,-0.0059,-0.0093,-0.0096,-0.0092,-0.0094,-0.0095,-0.0096,0,0,0,0,0,0,0,0.01,0.0097,0.0079,0.0077,0.0073,0.0047,0.0042,0.0019,-0.0006,0.0025,0.0021,0.0016,-0.0047,-0.0057,-0.0062,-0.0097,-0.0092,-0.0094,-0.0096,-0.0097,-0.015,-0.015,0,0,0,0,0,0,0.0111,0.01,0.0081,0.0077,0.0084,0.0047,0.0042,0.0044,-0.0005,-0.0013,0.0017,0.0014,-0.0052,-0.0058,-0.0065,-0.007,-0.0095,-0.0097,-0.0099,-0.015,-0.015,-0.015,0,0,0,0,0,0,0.0112,0.011,0.0083,0.0087,0.0082,0.0048,0.0049,0.0043,0.0031,-0.0011,-0.0019,0.0012,-0.0053,-0.0061,-0.008,-0.0073,-0.0099,-0.0101,-0.015,-0.015,-0.015,-0.0083,0,0,0,0,0,0,0.0113,0.0111,0.0114,0.0088,0.0082,0.0077,0.005,0.0042,0.0029,0.0026,-0.0017,-0.0026,-0.0054,-0.0076,-0.0083,-0.0078,-0.0103,-0.0151,-0.015,-0.015,-0.0085,-0.008,-0.0076,0,0,0,0,0,0.0114,0.0125,0.0115,0.0112,0.0088,0.0077,0.0072,0.0045,0.003,0.0031,0.0002,-0.0024,-0.0079,-0.0078,-0.0086,-0.0081,-0.0151,-0.015,-0.015,-0.0087,-0.0081,-0.0076,0,0,0,0,0,0,0.0135,0.0121,0.0109,0.0114,0.0099,0.007,0.0068,0.0049,0.0027,0.0023,-0.0019,-0.0028,-0.0044,-0.0072,-0.0069,-0.0097,-0.012,-0.0122,-0.007,-0.0065,-0.006,-0.0041,-0.0105,0,0,0,0,0,0.0143,0.0147,0.0127,0.013,0.0126,0.0097,0.0088,0.0072,0.005,0.0039,0.0008,-0.0024,-0.0048,-0.0062,-0.0088,-0.0101,-0.0124,-0.0105,-0.01,-0.0096,-0.0087,-0.0115,-0.0112,-0.0148,-0.0148,-0.0148,0,0,0.015,0.0143,0.0145,0.0135,0.012,0.0126,0.0091,0.0084,0.0089,0.0034,0.0028,-0.0008,-0.0047,-0.0061,-0.0071,-0.0083,-0.0098,-0.0096,-0.0091,-0.0085,-0.0114,-0.011,-0.0107,-0.0148,-0.0148,-0.0148,0,0,0.0175,0.0165,0.0179,0.0174,0.016,0.0146,0.0147,0.0122,0.0111,0.01,0.0063,0.0034,-0.0004,-0.0029,-0.0047,-0.0033,-0.0071,-0.0046,-0.0008,-0.0035,-0.0032,-0.0029,-0.005,-0.005,-0.0045,-0.0045,-0.0045,0,0.0185,0.0203,0.0181,0.0195,0.02,0.0161,0.0182,0.0166,0.0137,0.0133,0.0107,0.0053,0.0013,0.0003,0.0001,-0.0021,-0.0041,-0.0024,-0.0027,-0.0026,-0.0024,-0.0046,-0.0047,-0.0042,-0.0042,-0.0042,-0.0043,0,0.0222,0.0237,0.0246,0.0255,0.0256,0.0267,0.0249,0.0241,0.0218,0.0198,0.0179,0.0124,0.0092,0.007,0.0036,0.0028,0.0009,-0.0016,-0.0037,-0.0016,-0.0041,-0.0043,-0.0037,-0.0038,-0.0039,-0.004,0,0,0.0245,0.027,0.0273,0.0298,0.0293,0.0303,0.0309,0.031,0.0325,0.0275,0.0288,0.0223,0.0185,0.0162,0.0114,0.0083,0.0065,0.004,0.0036,0.0028,0.0012,-0.0023,-0.0029,0.0039,0.0039,0.0039,-0.0007,0,0.0283,0.0336,0.0333,0.0383,0.0413,0.039,0.0405,0.0397,0.038,0.0379,0.0313,0.0301,0.0224,0.021,0.0166,0.0097,0.0062,0.008,-0.0015,-0.0017,-0.0044,-0.0032,-0.0014,-0.0056,-0.001,-0.001,-0.001,0,0.0321,0.0356,0.0417,0.0466,0.0476,0.0494,0.0522,0.0535,0.0515,0.0502,0.0467,0.0412,0.0358,0.029,0.0179,0.0195,0.0108,0.0046,0.0042,-0.0013,-0.0056,-0.0072,-0.0062,-0.0014,-0.0014,-0.0014,-0.0013,0,0.0361,0.0416,0.0473,0.0488,0.0528,0.0548,0.0568,0.0568,0.0605,0.0583,0.0599,0.0514,0.0493,0.0368,0.0219,0.0201,0.0102,0.006,-0.0052,-0.0055,-0.0071,-0.0075,-0.002,-0.002,-0.002,-0.002,-0.002,0,0.0406,0.0454,0.0497,0.0528,0.0605,0.0607,0.0678,0.0683,0.071,0.0778,0.0669,0.0698,0.0511,0.0424,0.0267,0.0109,0.0134,-0.0039,-0.0069,-0.0048,-0.005,-0.0041,-0.0042,-0.0022,-0.0021,-0.0021,-0.0021,0,0.0445,0.047,0.0548,0.0603,0.0628,0.0686,0.0769,0.083,0.0829,0.0917,0.0915,0.0847,0.0732,0.0534,0.0349,0.0191,0.0027,-0.0039,-0.0,-0.0026,-0.0125,-0.0123,-0.0167,-0.0169,-0.017,-0.0171,-0.0172,0,0.0484,0.052,0.0607,0.0677,0.0709,0.079,0.0861,0.0891,0.0971,0.1022,0.1082,0.0988,0.0938,0.0639,0.0346,0.0065,0.0034,-0.0102,-0.0149,-0.0115,-0.014,-0.0136,-0.0132,-0.014,-0.0141,-0.0142,-0.0142,0,0.0561,0.0576,0.0636,0.0772,0.0864,0.0977,0.1078,0.1155,0.1215,0.1261,0.1331,0.1286,0.0997,0.071,0.0311,0.012,-0.0064,-0.0123,-0.0086,-0.011,-0.0096,-0.0118,-0.0114,-0.0146,-0.0146,-0.0146,-0.0145,-0.0145,0.0629,0.0678,0.0758,0.089,0.1008,0.1166,0.1265,0.1371,0.149,0.1561,0.1511,0.142,0.11,0.0568,0.025,-0.0094,-0.0089,-0.0217,-0.0213,-0.0209,-0.0202,-0.0191,-0.0258,-0.0258,-0.0258,-0.0258,-0.0258,0,0.072,0.0768,0.0888,0.105,0.1201,0.1242,0.1418,0.1505,0.1645,0.1659,0.1657,0.1316,0.0982,0.0619,0.0103,-0.0204,-0.0222,-0.0293,-0.0245,-0.0239,-0.0234,-0.0226,-0.029,-0.0291,-0.0291,-0.0292,0,0,0.0773,0.0884,0.0929,0.119,0.1312,0.1494,0.1596,0.1706,0.174,0.1723,0.1628,0.1492,0.1059,0.0687,0.028,-0.0003,-0.005,-0.0061,-0.0007,0.0102,0.0111,-0.0167,-0.0146,0,0,0,0,0]}],[{"header":{"parameterUnit":"m.s-1","parameterCategory":2,"la1":30.2991,"la2":30.254,"lo1":-89.0895,"lo2":-89.0444,"dy":0.0017,"dx":0.0017,"nx":28,"ny":28,"refTime":"2025-09-12T03:00:00:Z","depth":"4","parameterNumber":2,"parameterNumberName":"U-component_of_CURRENTS"},"data":[0,0,0,0,0,0,0,0,0,0,0,0,0,0,0,0,0,0,0,0,0,0,0,0,0,0,0,0,0,0,0,0,0,0,0,0,0,0,0,0,0,0,0,0,0,0,0,0,0,0,0,0,0,0,0,0,0,0,0.1432,0.1433,0,0.1474,0.1475,0.1475,0.1512,0.1512,0.1513,0.1513,0.1572,0.1573,0.1574,0,0,0,0,0,0,0,0,0,0,0,0,0,0.136,0.1361,0.1432,0.1433,0.1433,0.1474,0.1475,0.1475,0.1512,0.1512,0.1513,0.1514,0.1571,0.1573,0.1574,0,0,0,0,0,0,0,0,0,0,0,0,0,0.1394,0.1361,0.1432,0.1458,0.1461,0.1474,0.1475,0.1475,0.1511,0.1512,0.1513,0.1514,0.1571,0.1572,0.1574,0.1567,0,0,0.1579,0.1579,0,0,0,0,0,0,0,0,0.1392,0.1396,0.1453,0.1456,0.1459,0.149,0.1471,0.1507,0.1511,0.149,0.1513,0.1514,0.1546,0.155,0.1554,0.157,0.1572,0.1579,0.158,0.158,0.1581,0,0,0,0,0,0,0,0.1389,0.1395,0.1447,0.1454,0.1458,0.1459,0.1465,0.1477,0.1512,0.1492,0.1495,0.1502,0.1548,0.1552,0.1555,0.1573,0.1579,0.158,0.1581,0.1582,0.1683,0.1685,0,0,0,0,0,0,0.1388,0.1392,0.1446,0.1449,0.1429,0.146,0.1467,0.1478,0.1512,0.1518,0.1502,0.1504,0.1549,0.1553,0.1557,0.163,0.158,0.1582,0.1583,0.1681,0.1683,0.1685,0,0,0,0,0,0,0.1386,0.1392,0.1444,0.1422,0.1429,0.1461,0.1473,0.1478,0.1516,0.1519,0.1526,0.1538,0.155,0.1555,0.1603,0.163,0.1583,0.1584,0.1679,0.1682,0.1684,0.1725,0,0,0,0,0,0,0.1384,0.1392,0.1413,0.1423,0.1431,0.1475,0.1473,0.1479,0.1518,0.1522,0.1552,0.1556,0.1551,0.1601,0.1605,0.1631,0.1585,0.1677,0.168,0.1684,0.1722,0.1729,0.1735,0,0,0,0,0,0.1381,0.14,0.1414,0.1421,0.1455,0.1476,0.1481,0.1504,0.1519,0.154,0.1567,0.1557,0.1625,0.1604,0.1608,0.1635,0.1675,0.168,0.1683,0.1719,0.1728,0.1735,0,0,0,0,0,0,0.1377,0.1406,0.1421,0.1449,0.1473,0.1483,0.1509,0.1524,0.156,0.1576,0.1578,0.1585,0.1634,0.1635,0.1612,0.1676,0.1649,0.1654,0.1675,0.1683,0.169,0.1692,0.1587,0,0,0,0,0,0.1386,0.1414,0.1436,0.1462,0.1479,0.1502,0.152,0.1537,0.1562,0.1581,0.1601,0.1627,0.1647,0.1667,0.1683,0.172,0.1733,0.1743,0.1749,0.1755,0.1762,0.1807,0.1818,0.1698,0.1698,0.1698,0,0,0.1391,0.1413,0.1429,0.1465,0.1488,0.1511,0.1516,0.1554,0.158,0.158,0.1635,0.1653,0.1663,0.1703,0.1725,0.1712,0.1798,0.176,0.1765,0.1768,0.1812,0.1824,0.1834,0.1701,0.1701,0.17,0,0,0.1403,0.1438,0.1462,0.1487,0.153,0.1542,0.1561,0.1595,0.1623,0.1669,0.1677,0.1717,0.1751,0.1764,0.1772,0.1829,0.1831,0.184,0.1877,0.1921,0.1931,0.194,0.1978,0.199,0.1845,0.1845,0.1845,0,0.1411,0.144,0.1472,0.15,0.1522,0.156,0.1584,0.1614,0.1661,0.169,0.1697,0.1764,0.1775,0.1818,0.184,0.1843,0.187,0.1841,0.1929,0.1938,0.1946,0.1983,0.1996,0.1847,0.1847,0.1847,0.1846,0,0.1429,0.1463,0.1482,0.1528,0.1558,0.1589,0.1628,0.1674,0.1713,0.1739,0.1806,0.1826,0.1866,0.1878,0.1877,0.1943,0.1945,0.1929,0.1904,0.1961,0.1996,0.2008,0.1851,0.185,0.1849,0.1848,0,0,0.141,0.148,0.1489,0.1514,0.1577,0.1597,0.1657,0.171,0.1758,0.181,0.1865,0.1908,0.1932,0.1944,0.1954,0.1995,0.2078,0.1997,0.1998,0.2027,0.2185,0.2048,0.2048,0.2084,0.2086,0.2088,0.2189,0,0.1414,0.146,0.1498,0.1545,0.157,0.1628,0.1676,0.1737,0.1795,0.1862,0.1903,0.1962,0.1953,0.1987,0.2025,0.2071,0.2113,0.2053,0.2132,0.2135,0.1999,0.2057,0.2095,0.2198,0.22,0.2202,0.2204,0,0.141,0.1444,0.1488,0.1555,0.1574,0.1615,0.1705,0.1754,0.1855,0.1909,0.1976,0.2013,0.209,0.207,0.2172,0.2141,0.217,0.2196,0.22,0.2063,0.2019,0.2129,0.2226,0.2224,0.2223,0.2221,0.222,0,0.136,0.1432,0.1467,0.149,0.1574,0.162,0.1675,0.1776,0.1832,0.1953,0.201,0.2093,0.2156,0.2205,0.2258,0.2234,0.2364,0.2328,0.223,0.2221,0.2296,0.2285,0.2397,0.2397,0.2397,0.2396,0.2396,0,0.1327,0.1352,0.1456,0.1471,0.1525,0.1604,0.1682,0.1753,0.1871,0.1941,0.2033,0.2091,0.2199,0.2273,0.2297,0.2303,0.2396,0.2247,0.2239,0.2312,0.2302,0.2305,0.2293,0.24,0.2399,0.2398,0.2398,0,0.1245,0.1313,0.1356,0.1463,0.1499,0.1541,0.1673,0.1725,0.1859,0.1954,0.2,0.2135,0.2231,0.2309,0.2412,0.2346,0.237,0.2347,0.2441,0.2434,0.2189,0.2179,0.224,0.2236,0.2233,0.223,0.2227,0,0.1192,0.1216,0.1335,0.136,0.1409,0.1496,0.1548,0.1699,0.1765,0.1956,0.1985,0.2133,0.2205,0.2236,0.2326,0.2368,0.2337,0.2331,0.2233,0.2188,0.2175,0.2169,0.2163,0.2222,0.2221,0.222,0.2219,0,0.1093,0.1161,0.1207,0.1274,0.1333,0.138,0.1481,0.1525,0.1703,0.1847,0.1932,0.1986,0.209,0.2156,0.2214,0.2231,0.232,0.2294,0.23,0.2208,0.2167,0.2156,0.2154,0.2207,0.2209,0.221,0.2211,0,0.1024,0.1042,0.1128,0.1175,0.123,0.124,0.1311,0.1405,0.1497,0.1732,0.1762,0.1917,0.2074,0.2087,0.2135,0.2149,0.2106,0.2023,0.2042,0.2056,0.1947,0.1864,0.1814,0,0,0,0,0,0.0951,0.0973,0.1012,0.106,0.1107,0.1142,0.125,0.1337,0.1535,0.155,0.166,0.1749,0.183,0.191,0.1887,0.2039,0.2101,0.2002,0.201,0.2142,0.2156,0.2043,0,0,0,0,0,0,0.0905,0.0942,0.0983,0.0954,0.0962,0.1,0.1059,0.1184,0.1217,0.1425,0.1481,0.1642,0.1746,0.1833,0.1855,0.1881,0.1848,0.2116,0.2112,0.2135,0.2147,0.2158,0.2046,0,0,0,0,0]},{"header":{"parameterUnit":"m.s-1","parameterCategory":2,"la1":30.2991,"la2":30.254,"lo1":-89.0895,"lo2":-89.0444,"dy":0.0017,"dx":0.0017,"nx":28,"ny":28,"refTime":"2025-09-12T03:00:00:Z","depth":"4","parameterNumber":3,"parameterNumberName":"V-component_of_CURRENTS"},"data":[0,0,0,0,0,0,0,0,0,0,0,0,0,0,0,0,0,0,0,0,0,0,0,0,0,0,0,0,0,0,0,0,0,0,0,0,0,0,0,0,0,0,0,0,0,0,0,0,0,0,0,0,0,0,0,0,0,0,0.0154,0.0154,0,0.0122,0.0122,0.0121,0.0101,0.0101,0.0101,0.0101,0.0057,0.0056,0.0055,0,0,0,0,0,0,0,0,0,0,0,0,0,0.0168,0.0168,0.0154,0.0154,0.0154,0.0122,0.0122,0.0121,0.0101,0.0101,0.0101,0.0101,0.0057,0.0056,0.0054,0,0,0,0,0,0,0,0,0,0,0,0,0,0.015,0.0168,0.0154,0.014,0.0139,0.0122,0.0122,0.0121,0.0101,0.0101,0.0101,0.0101,0.0058,0.0056,0.0054,0.0045,0,0,0.0049,0.0048,0,0,0,0,0,0,0,0,0.0151,0.015,0.0143,0.0141,0.014,0.0116,0.011,0.0095,0.0101,0.0114,0.0101,0.0101,0.0076,0.0073,0.0066,0.0043,0.0041,0.0049,0.0048,0.0047,0.0047,0,0,0,0,0,0,0,0.0153,0.0151,0.014,0.0142,0.014,0.0125,0.0123,0.0107,0.0095,0.0113,0.0112,0.011,0.0075,0.0068,0.0065,0.004,0.0049,0.0047,0.0046,0.0046,0.0012,0.0012,0,0,0,0,0,0,0.016,0.0152,0.0142,0.014,0.0147,0.0125,0.0123,0.0123,0.0095,0.0091,0.011,0.0109,0.007,0.0067,0.0063,0.0073,0.0047,0.0045,0.0045,0.0012,0.0012,0.0012,0,0,0,0,0,0,0.0161,0.016,0.0143,0.0146,0.0143,0.0126,0.0126,0.0122,0.0118,0.0093,0.0089,0.011,0.007,0.0065,0.0056,0.007,0.0045,0.0043,0.0012,0.0012,0.0012,0.0078,0,0,0,0,0,0,0.0161,0.016,0.0163,0.0146,0.0143,0.014,0.0126,0.0122,0.0117,0.0116,0.0092,0.0087,0.007,0.0058,0.0054,0.0067,0.0042,0.0012,0.0012,0.0012,0.0076,0.0081,0.0085,0,0,0,0,0,0.0162,0.017,0.0164,0.0162,0.0148,0.0141,0.0137,0.0124,0.0118,0.0119,0.0103,0.0088,0.0057,0.0057,0.0052,0.0065,0.0012,0.0012,0.0012,0.0074,0.008,0.0085,0,0,0,0,0,0,0.0175,0.0168,0.0161,0.0165,0.0156,0.0138,0.0138,0.0128,0.0116,0.0116,0.0091,0.0086,0.0081,0.0061,0.0062,0.0054,0.0031,0.003,0.008,0.0085,0.0089,0.0101,0.004,0,0,0,0,0,0.018,0.0185,0.0172,0.0175,0.0173,0.0156,0.0152,0.0143,0.013,0.0125,0.0108,0.0089,0.0077,0.0072,0.0054,0.0052,0.002,0.0055,0.006,0.0064,0.0068,0.0035,0.0037,0.0013,0.0013,0.0013,0,0,0.0185,0.0182,0.0184,0.0179,0.017,0.0177,0.0153,0.0152,0.0159,0.0122,0.0126,0.0103,0.0078,0.0077,0.0073,0.0064,0.0051,0.0064,0.0068,0.007,0.0035,0.0037,0.004,0.0014,0.0014,0.0014,0,0,0.0202,0.0197,0.0208,0.0207,0.02,0.0192,0.0195,0.018,0.0177,0.0173,0.0151,0.0138,0.0116,0.0106,0.0098,0.0113,0.0073,0.0106,0.0143,0.0111,0.0113,0.0114,0.0069,0.0066,0.0112,0.0112,0.0112,0,0.0209,0.0224,0.0209,0.0222,0.023,0.0204,0.0223,0.0215,0.0199,0.0201,0.0182,0.0153,0.0131,0.0136,0.0142,0.0126,0.0094,0.013,0.0118,0.0119,0.0119,0.0072,0.0068,0.0115,0.0115,0.0114,0.0114,0,0.0235,0.025,0.0257,0.0269,0.0273,0.0284,0.0276,0.0276,0.0265,0.0254,0.0248,0.0214,0.0198,0.0189,0.0172,0.017,0.0141,0.0126,0.0109,0.0126,0.0075,0.0069,0.012,0.0119,0.0118,0.0117,0,0,0.0243,0.0272,0.0276,0.0299,0.0304,0.0313,0.0327,0.0335,0.0348,0.032,0.0329,0.0303,0.0277,0.0265,0.0238,0.0213,0.0184,0.0176,0.0173,0.0139,0.01,0.0072,0.0062,0.0167,0.0167,0.0167,0.0062,0,0.027,0.0314,0.0319,0.0364,0.0389,0.0383,0.0401,0.0403,0.0393,0.0391,0.0353,0.0346,0.0309,0.0303,0.0272,0.0206,0.0172,0.0212,0.0082,0.0078,0.0058,0.0056,0.0165,0.0057,0.0056,0.0055,0.0054,0,0.0294,0.0325,0.0378,0.0426,0.0436,0.0459,0.049,0.0504,0.0491,0.0482,0.0461,0.0421,0.0385,0.0345,0.0241,0.0267,0.0191,0.0133,0.0128,0.0076,0.004,0.0037,0.0043,0.0044,0.0045,0.0046,0.0046,0,0.0315,0.0367,0.0418,0.0433,0.0477,0.0503,0.0526,0.0532,0.0557,0.054,0.054,0.0482,0.0451,0.0355,0.023,0.0235,0.01,0.0089,-0.0011,-0.0015,0.0013,0.0013,0.0011,0.0011,0.0012,0.0012,0.0012,0,0.0345,0.0385,0.0436,0.0463,0.0529,0.0543,0.0603,0.0611,0.0626,0.0656,0.0591,0.058,0.0452,0.0356,0.0241,0.0092,0.0103,-0.0008,-0.0041,0.0041,0.0045,0.0008,0.0009,0.0008,0.0009,0.001,0.001,0,0.0365,0.0393,0.0459,0.0519,0.0543,0.0593,0.0666,0.0709,0.0706,0.0738,0.0734,0.0652,0.0521,0.0374,0.0206,0.0109,-0.0031,-0.0088,-0.0001,-0.0026,-0.0129,-0.0123,-0.0206,-0.0208,-0.0209,-0.021,-0.0211,0,0.0384,0.0418,0.0503,0.055,0.0586,0.0659,0.0716,0.0751,0.0794,0.0778,0.0793,0.0675,0.0598,0.0338,0.0176,-0.0056,-0.0086,-0.0162,-0.0134,-0.0126,-0.015,-0.0142,-0.0134,-0.0214,-0.0214,-0.0215,-0.0215,0,0.0424,0.0451,0.0503,0.0598,0.0673,0.0758,0.0833,0.0866,0.0898,0.0895,0.0838,0.0696,0.0538,0.0334,0.0146,-0.0016,-0.0111,-0.0178,-0.0176,-0.015,-0.0137,-0.0157,-0.0148,-0.022,-0.022,-0.0219,-0.0219,0,0.0458,0.0496,0.0561,0.0645,0.0737,0.0821,0.0863,0.0905,0.0939,0.0916,0.089,0.0714,0.0617,0.0352,0.0182,0.0013,-0.0025,-0.0067,-0.0071,-0.0067,0.0003,0.0042,-0.0016,0,0,0,0,0,0.0493,0.0529,0.0605,0.0696,0.0786,0.0843,0.0926,0.0959,0.0979,0.0954,0.0924,0.0775,0.0505,0.0384,0.0212,0.0145,-0.006,-0.0064,-0.0111,-0.025,-0.0244,-0.0187,0,0,0,0,0,0,0.051,0.058,0.0603,0.0715,0.0786,0.0895,0.0951,0.0974,0.0954,0.094,0.08,0.0732,0.0471,0.0607,0.0209,0.0155,0.0101,-0.0188,-0.0192,-0.0253,-0.0248,-0.0243,-0.0183,0,0,0,0,0]}]]